CW9114 Weather Reports


Display with metric or nautical units.
time (UTC)temp
F
wind
direction
speed
MPH
gust
MPH
rain 1hr
in
rain 24hr
in
rain mn
in
humidity
%
barometer
mb
20260506101514 36 360 0.0 3.0 0.00 0.00 0.00 67 1010.4
20260506100011 36 360 1.0 4.0 0.00 0.00 0.00 67 1010.3
20260506094512 36 360 1.0 4.0 0.00 0.00 0.00 67 1010.3
20260506093016 36 360 0.0 5.0 0.00 0.00 0.00 67 1010.4
20260506091514 36 360 2.0 4.0 0.00 0.00 0.00 66 1010.4
20260506090016 36 360 0.0 3.0 0.00 0.00 0.00 66 1010.3
20260506084516 36 360 1.0 4.0 0.00 0.00 0.00 66 1010.3
20260506083014 36 360 0.0 3.0 0.00 0.00 0.00 65 1010.4
20260506081516 36 360 0.0 4.0 0.00 0.00 0.00 64 1010.3
20260506073018 36 360 0.0 4.0 0.00 0.00 0.00 62 1010.0
20260506071517 37 360 0.0 4.0 0.00 0.00 0.00 62 1010.0
20260506061508 37 360 1.0 4.0 0.00 0.00 0.00 60 1010.0
20260506044507 37 360 0.0 4.0 0.00 0.00 0.00 60 1010.0
20260506043016 37 360 1.0 5.0 0.00 0.00 0.00 60 1010.0
20260506041520 36 360 0.0 4.0 0.00 0.00 0.00 60 1010.0
20260506040005 36 360 0.0 4.0 0.00 0.00 0.00 59 1010.1
20260506034504 37 360 2.0 5.0 0.00 0.00 0.00 59 1010.1
20260506033008 37 360 0.0 3.0 0.00 0.00 0.00 60 1010.1
20260506031530 37 360 1.0 4.0 0.00 0.00 0.00 59 1010.1
20260506030020 37 360 0.0 4.0 0.00 0.00 0.00 58 1010.1
20260506024513 37 360 0.0 4.0 0.00 0.00 0.00 57 1010.2
20260506023007 37 360 0.0 7.0 0.00 0.00 0.00 59 1010.1
20260506021512 37 360 0.0 4.0 0.00 0.00 0.00 59 1010.0
20260506020017 37 360 2.0 5.0 0.00 0.00 0.00 57 1009.9
20260506014522 37 360 0.0 6.0 0.00 0.00 0.00 58 1009.7
20260506013004 37 360 0.0 7.0 0.00 0.00 0.00 58 1009.6
20260506011510 37 360 0.0 7.0 0.00 0.00 0.00 58 1009.6
20260506010014 37 360 3.0 10.0 0.00 0.00 0.00 57 1009.6
20260506004524 38 360 5.0 13.0 0.00 0.00 0.00 56 1009.6
20260506003023 39 288 1.0 9.0 0.00 0.00 0.00 56 1009.2
20260506001524 39 288 3.0 16.0 0.00 0.00 0.00 54 1009.0
20260506000009 40 291 3.0 14.0 0.00 0.00 0.00 53 1008.9
20260505234516 40 349 6.0 14.0 0.00 0.00 0.00 52 1008.9
20260505233019 40 360 2.0 11.0 0.00 0.00 0.00 53 1008.7
20260505231529 41 306 4.0 11.0 0.00 0.00 0.00 53 1008.7
20260505230028 41 360 5.0 12.0 0.00 0.00 0.00 51 1008.8
20260505224512 41 352 4.0 12.0 0.00 0.00 0.00 51 1008.8
20260505223017 41 356 3.0 15.0 0.00 0.00 0.00 50 1008.7
20260505221520 41 266 7.0 15.0 0.00 0.00 0.00 49 1008.6
20260505220023 41 278 6.0 14.0 0.00 0.00 0.00 48 1008.6
20260505214535 42 238 7.0 13.0 0.00 0.00 0.00 48 1008.3
20260505213014 41 289 5.0 15.0 0.00 0.00 0.00 50 1008.2
20260505211520 42 330 5.0 14.0 0.00 0.00 0.00 50 1008.2
20260505210027 42 308 7.0 15.0 0.00 0.00 0.00 50 1008.1
20260505204532 43 311 5.0 15.0 0.00 0.00 0.00 51 1008.0
20260505203031 44 300 3.0 15.0 0.00 0.00 0.00 49 1007.7
20260505201514 44 311 3.0 11.0 0.00 0.00 0.00 49 1007.6
20260505200034 45 276 3.0 11.0 0.00 0.00 0.00 50 1007.4
20260505194522 44 316 5.0 12.0 0.00 0.00 0.00 48 1007.4
20260505193025 45 315 3.0 13.0 0.00 0.00 0.00 49 1007.0
20260505191511 45 360 5.0 13.0 0.00 0.00 0.00 49 1007.0
20260505190016 45 278 5.0 13.0 0.00 0.00 0.00 50 1006.9
20260505184520 45 360 6.0 15.0 0.00 0.00 0.00 53 1006.8
20260505183005 43 360 6.0 13.0 0.00 0.00 0.00 59 1006.8
20260505181508 42 360 5.0 14.0 0.00 0.00 0.00 62 1006.7
20260505180011 41 360 3.0 10.0 0.00 0.00 0.00 64 1006.6
20260505174519 41 360 5.0 12.0 0.00 0.00 0.00 64 1006.4
20260505173022 42 360 5.0 11.0 0.00 0.00 0.00 62 1006.1
20260505171512 44 296 5.0 13.0 0.00 0.00 0.00 57 1005.9
20260505170015 46 273 5.0 16.0 0.00 0.00 0.00 59 1005.7
20260505164513 45 300 6.0 13.0 0.00 0.00 0.00 59 1005.6
20260505163019 45 321 4.0 12.0 0.00 0.00 0.00 59 1005.6
20260505161522 44 283 4.0 14.0 0.00 0.00 0.00 62 1005.4
20260505153015 44 311 6.0 13.0 0.00 0.00 0.00 69 1005.2
20260505151522 43 300 6.0 12.0 0.00 0.00 0.00 72 1005.1
20260505124524 40 301 1.0 5.0 0.00 0.00 0.00 73 1003.5
20260505123027 39 360 2.0 9.0 0.00 0.00 0.00 75 1003.5
20260505121512 39 360 1.0 4.0 0.00 0.00 0.00 75 1003.4
20260505120017 38 360 1.0 4.0 0.00 0.00 0.00 76 1003.3
20260505114522 37 360 0.0 7.0 0.00 0.00 0.00 77 1003.1
20260505113025 37 360 1.0 5.0 0.00 0.00 0.00 77 1003.0
20260505111535 36 360 0.0 2.0 0.00 0.00 0.00 77 1002.9